Date,TemperatureHighF,TemperatureAvgF,TemperatureLowF,DewpointHighF,DewpointAvgF,DewpointLowF,HumidityHigh,HumidityAvg,HumidityLow,PressureMaxIn,PressureMinIn,WindSpeedMaxMPH,WindSpeedAvgMPH,GustSpeedMaxMPH,PrecipitationSumIn
2013-1-1,61,55,49,55,50,44,93,82,75,30.13,29.90,6,2,9,0.00
2013-1-2,61,53,47,58,50,44,95,89,81,30.14,29.84,8,4,15,0.00
2013-1-3,46,43,38,43,41,36,94,91,87,30.23,30.07,5,2,7,0.08
2013-1-4,52,42,32,38,33,29,96,75,43,30.31,30.18,6,2,10,0.01
2013-1-5,53,40,30,38,31,25,92,73,36,30.37,30.24,6,1,7,0.01
2013-1-6,54,48,42,45,42,38,94,80,64,30.26,30.04,5,1,7,0.01
2013-1-7,55,47,39,44,38,32,94,74,44,30.36,30.11,7,3,13,0.00
2013-1-8,66,52,43,54,45,35,94,77,62,30.37,30.28,6,2,9,0.00
2013-1-9,73,61,50,61,55,48,95,83,62,30.35,30.29,4,1,5,0.01
2013-1-10,71,60,54,57,53,43,96,77,56,30.43,30.33,10,3,12,0.00
2013-1-11,70,56,53,65,52,46,95,86,69,30.34,30.21,5,2,8,0.04
2013-1-12,79,67,62,65,62,60,96,85,58,30.17,30.07,10,3,0,0.00
2013-1-13,75,66,60,64,60,58,95,84,62,30.14,30.04,10,3,0,0.00
2013-1-14,78,67,58,65,61,57,97,84,60,30.16,30.06,11,4,0,0.01
2013-1-15,77,65,60,64,61,59,97,88,59,30.13,29.99,8,3,11,0.00
2013-1-16,79,70,62,66,63,58,97,80,51,30.01,29.90,12,5,19,0.01
2013-1-17,77,64,44,66,58,40,94,81,58,29.99,29.69,18,7,20,0.19
2013-1-18,52,43,36,39,32,25,91,68,36,30.47,30.00,10,5,14,0.00
2013-1-19,60,46,33,45,37,29,92,73,50,30.46,30.17,5,1,7,0.00
2013-1-20,66,52,42,46,39,30,95,66,26,30.17,29.98,10,3,13,0.00
2013-1-21,65,52,37,47,36,32,92,59,31,30.04,29.88,10,3,17,0.00
2013-1-22,53,44,33,34,24,16,78,47,28,30.22,29.95,7,3,9,0.00
2013-1-23,47,36,27,34,19,7,87,52,25,30.35,30.10,7,2,9,0.00
2013-1-24,57,43,28,43,28,10,82,58,39,30.48,29.99,13,7,18,0.00
2013-1-25,39,32,25,27,18,8,68,57,43,30.47,30.11,6,3,8,0.00
2013-1-26,52,41,34,36,30,25,83,66,52,30.32,30.07,7,3,10,0.00
2013-1-27,48,38,29,33,29,26,89,73,47,30.50,30.32,7,3,12,0.00
2013-1-28,60,46,34,55,41,28,96,82,66,30.46,30.24,7,2,10,0.00
2013-1-29,76,58,44,63,54,43,97,86,58,30.24,30.08,8,2,11,0.00
2013-1-30,72,68,60,66,64,59,96,86,78,30.09,29.55,23,11,27,0.01
2013-1-31,71,51,44,66,34,21,90,56,27,30.08,29.54,21,10,31,0.26
2013-2-1,54,47,41,32,27,4,60,48,15,30.17,30.04,14,8,18,0.00
2013-2-2,49,38,25,41,26,12,87,62,42,30.36,30.02,9,3,0,0.00
2013-2-3,58,47,38,38,34,29,84,61,37,30.03,29.84,16,5,0,0.00
2013-2-4,50,40,30,36,30,27,90,68,43,30.12,29.98,6,1,9,0.00
2013-2-5,67,54,41,48,40,34,85,63,30,30.02,29.88,11,4,15,0.00
2013-2-6,69,57,45,51,45,37,93,68,32,30.18,29.96,7,2,10,0.00
2013-2-7,58,50,43,53,48,42,95,91,76,30.18,29.69,9,4,15,0.57
2013-2-8,62,54,48,52,48,44,95,80,60,30.00,29.62,11,6,20,0.18
2013-2-9,58,47,37,43,31,22,88,57,26,30.32,30.00,8,3,13,0.00
2013-2-10,59,47,33,50,39,28,91,74,52,30.41,30.19,10,4,14,0.00
2013-2-11,66,61,51,62,58,49,95,91,86,30.23,29.97,15,6,20,0.39
2013-2-12,62,57,51,58,54,49,95,88,68,30.08,29.88,8,3,12,0.28
2013-2-13,65,54,48,60,50,46,96,88,67,29.90,29.63,12,5,18,0.08
2013-2-14,53,48,42,48,40,35,91,73,54,30.04,29.79,6,2,10,0.01
2013-2-15,59,47,36,42,39,34,95,75,46,30.06,29.92,8,2,11,0.01
2013-2-16,51,41,33,42,37,31,95,87,67,29.92,29.75,12,3,14,0.01
2013-2-17,40,34,28,31,24,19,93,70,46,30.26,29.92,12,5,19,0.26
2013-2-18,46,22,28,32,-20,-100,88,48,52,30.33,30.25,5,-380,5,0.06
2013-2-19,61,51,34,54,46,31,93,86,64,30.25,29.92,11,4,18,0.12
2013-2-20,57,48,36,46,34,20,93,63,24,30.11,29.97,7,3,10,0.01
2013-2-21,59,45,35,41,32,23,92,63,32,30.18,30.06,7,2,9,0.01
2013-2-22,49,45,40,47,40,29,95,85,57,30.24,30.03,9,4,11,0.20
2013-2-23,48,44,42,47,43,41,96,96,95,30.03,29.73,9,2,12,0.17
2013-2-24,64,52,46,50,46,43,96,82,46,29.98,29.74,6,3,12,0.06
2013-2-25,46,43,40,44,37,33,96,78,66,30.13,29.94,8,4,11,0.03
2013-2-26,72,56,41,66,51,-100,97,90,78,30.01,29.53,17,-10,26,0.10
2013-2-27,59,52,47,54,43,38,90,70,53,29.83,29.65,13,6,16,0.05
2013-2-28,57,50,45,42,37,32,83,61,40,29.83,29.71,14,7,24,0.01
2013-3-1,53,46,39,37,32,30,80,60,43,29.90,29.80,8,3,14,0.00
2013-3-2,48,43,37,38,34,32,93,72,53,29.88,29.79,8,2,10,0.00
2013-3-3,48,41,36,34,26,23,86,59,39,29.95,29.83,11,4,14,0.01
2013-3-4,52,41,31,29,22,17,76,50,25,30.12,29.95,8,3,18,0.07
2013-3-5,66,54,40,55,41,29,85,64,38,30.09,29.61,14,6,21,0.00
2013-3-6,61,49,42,55,31,24,81,51,35,30.01,29.58,18,11,30,0.00
2013-3-7,57,46,36,34,31,29,76,57,38,30.17,30.01,8,4,12,0.00
2013-3-8,57,46,35,32,29,26,73,52,31,30.24,30.12,9,4,13,0.00
2013-3-9,64,49,37,41,34,29,88,57,35,30.28,30.18,8,3,11,0.00
2013-3-10,63,50,36,43,34,22,94,62,22,30.28,30.19,9,3,12,0.00
2013-3-11,71,58,44,58,50,40,93,77,51,30.20,29.90,13,5,18,0.00
2013-3-12,71,65,59,63,59,49,95,83,64,29.92,29.75,13,5,15,0.00
2013-3-13,63,55,45,49,34,23,73,48,23,30.07,29.88,13,4,18,0.00
2013-3-14,54,45,35,31,23,18,61,43,26,30.25,30.06,9,4,13,0.00
2013-3-15,42,38,34,30,30,29,84,74,62,30.18,30.13,1,0,2,0.00
2013-3-16,80,74,56,49,46,42,59,38,28,29.96,29.75,17,10,0,0.00
2013-3-17,78,71,59,58,54,47,81,55,34,30.01,29.87,12,6,0,0.00
2013-3-18,63,58,55,54,53,51,94,84,70,30.04,29.83,11,5,0,0.00
2013-3-19,70,64,56,54,45,34,94,52,39,29.97,29.83,9,4,14,0.00
2013-3-20,57,51,42,39,28,15,86,43,21,30.09,29.78,8,3,11,0.00
2013-3-21,54,46,40,39,22,11,87,43,19,29.92,29.70,11,6,17,0.00
2013-3-22,53,42,31,36,23,15,66,48,26,30.07,29.92,8,3,14,0.03
2013-3-23,50,45,41,46,40,35,95,85,63,30.05,29.87,6,1,7,0.28
2013-3-24,58,49,44,56,47,42,96,94,89,29.88,29.40,19,5,22,0.42
2013-3-25,52,47,43,43,34,25,95,64,37,29.87,29.51,18,9,32,0.20
2013-3-26,50,43,34,31,27,25,73,54,39,30.10,29.87,11,6,15,0.03
2013-3-27,56,46,36,32,28,24,72,50,31,30.21,30.10,10,4,16,0.01
2013-3-28,57,46,35,32,27,23,74,50,26,30.25,30.14,9,3,13,0.00
2013-3-29,62,49,35,39,32,24,81,53,25,30.31,30.18,10,3,18,0.00
2013-3-30,63,55,48,48,44,39,88,68,48,30.21,30.07,10,3,13,0.00
2013-3-31,73,63,51,58,55,47,90,76,56,30.08,29.84,14,7,22,0.00
2013-4-1,74,64,59,61,58,54,94,81,52,29.89,29.80,9,4,16,0.00
2013-4-2,64,56,49,55,42,33,85,62,38,30.13,29.88,10,4,15,0.00
2013-4-3,61,54,48,50,42,28,92,67,36,30.22,30.04,11,4,15,0.00
2013-4-4,56,50,46,54,46,40,95,86,66,30.23,29.79,11,5,14,0.00
2013-4-5,58,49,42,50,45,41,95,87,69,29.99,29.81,7,3,11,0.00
2013-4-6,66,54,42,51,44,36,96,72,37,30.23,29.99,11,4,14,0.00
2013-4-7,70,57,41,58,50,39,93,77,51,30.24,30.12,10,3,14,0.00
2013-4-8,76,65,52,60,57,51,96,77,50,30.17,30.08,14,3,19,0.00
2013-4-9,80,69,57,65,61,56,96,78,49,30.20,30.09,9,3,12,0.00
2013-4-10,81,70,61,66,62,58,95,78,53,30.14,30.00,12,6,17,0.00
2013-4-11,80,71,62,70,66,61,96,86,63,30.00,29.83,13,6,15,0.00
2013-4-12,81,72,67,72,68,65,95,89,71,29.84,29.66,13,8,18,0.00
2013-4-13,74,64,56,67,53,45,95,69,37,30.00,29.76,10,4,12,0.00
2013-4-14,73,63,51,60,56,50,97,80,49,30.07,29.97,9,3,13,0.00
2013-4-15,71,66,62,63,61,59,94,84,73,30.14,29.87,16,5,18,0.00
2013-4-16,77,67,58,65,61,57,96,83,63,30.23,30.13,8,2,10,0.00
2013-4-17,80,68,57,66,61,56,97,81,55,30.21,30.11,9,2,13,0.00
2013-4-18,77,68,61,68,64,60,97,86,62,30.15,30.02,12,4,15,0.00
2013-4-19,78,72,67,72,69,64,95,88,78,30.02,29.83,15,8,25,0.00
2013-4-20,68,57,49,66,50,40,95,78,50,30.22,29.86,9,4,12,0.00
2013-4-21,68,54,43,49,44,41,91,71,44,30.35,30.21,13,5,17,0.00
2013-4-22,66,56,45,50,45,36,84,69,56,30.33,30.12,11,8,16,0.00
2013-4-23,67,57,50,56,51,48,92,81,64,30.18,30.10,11,4,13,0.00
2013-4-24,75,63,49,62,56,48,96,80,62,30.16,30.02,10,4,16,0.00
2013-4-25,77,66,57,65,61,54,93,84,64,30.22,30.04,8,3,12,0.00
2013-4-26,72,61,49,54,48,35,95,67,31,30.37,30.21,11,3,13,0.00
2013-4-27,74,62,52,56,48,42,91,66,33,30.32,30.22,9,3,15,0.00
2013-4-28,72,64,56,62,58,52,92,80,68,30.22,30.04,12,6,18,0.00
2013-4-29,71,66,63,64,62,60,96,89,74,30.05,29.94,9,3,12,0.00
2013-4-30,74,66,62,66,62,61,97,88,72,30.08,29.94,8,3,11,0.07
2013-5-1,72,64,58,63,60,56,95,86,65,30.18,30.05,9,5,11,0.14
2013-5-2,72,64,61,65,61,59,95,89,73,30.20,30.14,10,5,11,0.05
2013-5-3,66,61,55,60,55,46,93,83,66,30.13,30.05,9,6,16,0.01
2013-5-4,64,58,53,60,54,47,93,84,74,30.06,29.93,10,6,16,0.01
2013-5-5,72,63,56,64,58,54,93,85,70,29.95,29.82,13,8,21,0.00
2013-5-6,75,67,59,64,59,46,95,79,43,29.87,29.79,12,6,18,0.00
2013-5-7,69,61,54,58,54,50,91,78,57,29.94,29.85,11,4,16,0.03
2013-5-8,77,66,56,62,56,53,93,72,48,30.00,29.91,10,5,16,0.04
2013-5-9,83,71,60,65,60,56,90,70,42,30.06,29.96,8,4,11,0.03
2013-5-10,85,74,64,66,62,59,86,69,45,30.06,29.97,12,4,17,0.02
2013-5-11,82,75,70,69,65,58,88,72,47,29.99,29.82,11,6,15,0.01
2013-5-12,80,73,64,67,59,49,90,65,35,29.95,29.79,8,4,16,0.00
2013-5-13,72,63,54,52,42,36,69,49,28,30.10,29.95,9,4,13,0.01
2013-5-14,70,60,48,52,43,34,91,56,27,30.23,30.10,10,4,14,0.00
2013-5-15,86,71,59,65,57,52,84,63,41,30.12,29.94,10,7,16,0.00
2013-5-16,87,75,64,68,63,59,83,68,44,30.00,29.93,8,5,12,0.00
2013-5-17,88,76,66,68,64,61,87,68,41,30.08,29.98,7,2,12,0.00
2013-5-18,83,74,67,69,66,59,90,77,46,30.13,30.06,0,0,2,0.00
2013-5-19,80,73,69,71,68,65,94,84,63,30.12,30.05,8,0,13,0.06
2013-5-20,74,72,70,71,69,67,94,91,87,30.11,30.01,5,0,12,0.32
2013-5-21,78,73,70,72,70,68,96,89,73,30.05,29.96,6,1,12,0.15
2013-5-22,81,74,67,71,69,66,97,85,69,30.01,29.91,10,3,15,0.07
2013-5-23,82,73,67,72,69,65,96,88,61,29.95,29.80,8,1,12,0.01
2013-5-24,80,71,60,67,58,40,95,67,35,30.14,29.78,9,4,11,0.00
2013-5-25,75,63,50,55,44,38,80,54,26,30.27,30.13,6,2,10,0.00
2013-5-26,78,66,57,55,52,44,88,63,34,30.23,30.12,5,2,7,0.00
2013-5-27,78,69,57,64,60,54,90,73,58,30.24,30.16,9,3,12,0.00
2013-5-28,82,73,63,68,65,61,96,77,55,30.23,30.16,10,4,13,0.00
2013-5-29,81,74,64,69,66,63,96,78,57,30.24,30.14,9,3,17,0.00
2013-5-30,84,74,63,71,67,62,96,80,57,30.24,30.16,8,3,12,0.00
2013-5-31,81,74,67,73,70,66,97,86,70,30.21,30.11,8,3,14,0.00
2013-6-1,84,76,67,71,68,65,97,79,56,30.14,30.05,10,4,16,0.00
2013-6-2,84,76,70,73,70,68,94,83,67,30.08,29.92,12,5,20,0.00
2013-6-3,80,75,69,75,71,66,95,90,82,29.94,29.82,14,4,17,0.00
2013-6-4,86,75,68,73,70,67,97,86,65,30.03,29.88,8,2,10,0.00
2013-6-5,82,75,71,73,71,69,95,87,72,30.05,29.96,12,5,19,0.00
2013-6-6,80,76,72,74,72,70,95,90,80,29.97,29.75,11,5,14,0.00
2013-6-7,81,76,71,74,72,70,96,88,74,29.83,29.51,17,8,26,0.00
2013-6-8,86,80,74,76,73,71,94,80,61,30.07,29.82,10,5,16,0.02
2013-6-9,84,79,74,76,74,72,94,85,72,30.12,30.05,9,4,12,0.02
2013-6-10,85,78,71,77,74,69,94,85,72,30.09,29.92,12,6,21,0.01
2013-6-11,87,77,70,74,71,68,96,84,63,29.99,29.87,8,5,13,0.01
2013-6-12,92,83,73,80,74,70,96,77,52,29.95,29.86,6,2,13,0.01
2013-6-13,95,86,78,78,75,73,91,70,50,29.88,29.64,12,6,18,0.01
2013-6-14,84,77,70,74,64,58,93,67,44,29.97,29.68,7,3,12,0.00
2013-6-15,82,74,63,67,59,46,91,62,28,30.10,29.97,8,3,13,0.00
2013-6-16,71,69,67,64,63,63,87,82,77,30.12,30.08,4,2,6,0.00
2013-6-17,85,78,71,76,71,66,93,80,64,30.06,29.93,11,4,0,0.00
2013-6-18,88,79,73,76,72,68,94,81,63,29.98,29.79,10,5,0,0.00
2013-6-19,78,75,72,73,71,69,94,87,76,30.04,29.83,6,3,9,0.00
2013-6-20,84,74,67,69,67,63,93,79,56,30.14,30.03,10,5,17,0.00
2013-6-21,83,72,63,73,66,59,93,82,67,30.16,30.09,8,3,10,0.00
2013-6-22,83,76,70,74,71,69,96,88,71,30.13,30.05,6,2,10,0.00
2013-6-23,84,78,72,76,73,71,96,87,69,30.17,30.11,8,3,12,0.00
2013-6-24,86,79,76,76,74,71,95,85,66,30.20,30.10,8,4,10,0.00
2013-6-25,88,80,75,77,74,69,95,83,61,30.13,30.01,9,4,25,0.00
2013-6-26,87,78,74,76,73,69,95,84,65,30.03,29.92,9,5,12,0.00
2013-6-27,91,80,74,77,74,69,95,82,58,29.97,29.75,16,6,20,0.00
2013-6-28,91,83,77,80,76,73,91,80,57,29.78,29.61,12,7,16,0.00
2013-6-29,86,78,73,76,73,71,94,85,69,29.74,29.63,11,6,16,0.00
2013-6-30,83,77,72,78,74,70,96,91,78,29.85,29.70,11,5,24,0.00
2013-7-1,82,76,72,77,73,70,95,91,81,30.02,29.81,12,5,19,0.00
2013-7-2,80,76,71,76,74,69,95,92,83,30.14,30.00,10,3,23,0.00
2013-7-3,85,78,75,78,75,72,96,90,75,30.20,30.11,12,4,18,0.00
2013-7-4,85,81,77,76,74,71,91,81,65,30.22,30.16,13,7,0,0.00
2013-7-5,86,80,76,77,75,73,94,84,72,30.23,30.15,11,4,16,0.00
2013-7-6,86,79,72,76,73,70,96,82,61,30.21,30.11,10,4,15,0.02
2013-7-7,86,79,73,76,73,70,95,81,67,30.17,30.07,9,4,15,0.03
2013-7-8,86,79,73,75,72,70,94,80,63,30.16,30.08,8,3,11,0.02
2013-7-9,88,80,74,75,73,71,91,79,63,30.16,30.06,8,4,15,0.01
2013-7-10,87,80,75,75,73,72,91,80,63,30.10,29.95,9,4,15,0.00
2013-7-11,88,81,75,76,74,71,93,80,58,29.98,29.85,10,5,14,0.00
2013-7-12,79,76,72,74,72,70,96,89,83,29.94,29.84,6,2,8,0.03
2013-7-13,83,77,72,77,74,71,96,90,79,30.08,29.91,13,4,16,0.02
2013-7-14,86,81,76,76,74,72,93,80,67,30.21,30.08,12,6,17,0.00
2013-7-15,87,80,75,77,75,74,96,84,68,30.24,30.18,10,4,16,0.00
2013-7-16,91,81,73,77,73,70,97,79,52,30.25,30.15,7,2,10,0.00
2013-7-17,93,79,74,79,74,71,96,85,59,30.18,30.07,13,2,18,0.00
2013-7-18,89,80,72,77,74,71,98,84,58,30.11,30.04,8,2,10,0.00
2013-7-19,87,80,74,76,74,72,94,82,65,30.10,29.98,11,4,16,0.00
2013-7-20,86,79,76,76,74,72,91,84,66,30.05,29.95,12,6,18,0.00
2013-7-21,85,77,74,77,73,71,93,89,77,30.01,29.91,9,4,14,0.00
2013-7-22,88,80,75,76,74,72,95,83,64,29.96,29.85,9,5,12,0.00
2013-7-23,88,80,75,75,74,72,92,81,63,29.88,29.73,8,6,11,0.00
2013-7-24,87,80,75,78,74,70,93,82,65,29.78,29.72,7,3,9,0.00
2013-7-25,89,79,71,74,72,69,94,80,59,29.96,29.74,6,2,11,0.00
2013-7-26,86,78,70,74,71,68,94,81,65,30.04,29.95,7,3,10,0.00
2013-7-27,86,79,70,74,72,68,95,80,56,30.01,29.90,9,3,10,0.00
2013-7-31,82,77,75,76,71,-100,95,87,80,30.02,29.98,6,-15,10,0.00
2013-8-1,83,77,72,76,74,71,96,89,74,29.98,29.88,8,4,11,0.00
2013-8-2,87,79,74,79,75,73,96,89,70,30.02,29.90,12,3,12,0.00
2013-8-3,87,81,76,79,76,74,96,86,72,30.01,29.89,8,3,12,0.00
2013-8-4,90,80,74,78,73,70,95,80,59,29.98,29.86,7,2,9,0.00
2013-8-5,84,77,70,70,66,61,91,70,49,30.03,29.94,10,3,14,0.00
2013-8-6,83,76,69,72,68,64,91,76,56,30.03,29.94,6,2,10,0.00
2013-8-7,85,77,69,74,71,68,95,82,60,30.05,29.99,8,2,11,0.00
2013-8-8,87,79,72,77,74,70,96,86,66,30.03,29.97,7,2,11,0.00
2013-8-9,89,82,76,78,76,73,96,82,62,30.07,29.99,9,4,13,0.00
2013-8-10,92,83,75,79,76,72,96,81,53,30.09,30.01,9,4,12,0.00
2013-8-11,94,84,76,78,75,73,94,76,52,30.10,30.00,7,4,11,0.00
2013-8-12,94,85,78,79,76,74,91,77,55,30.04,29.91,7,4,11,0.00
2013-8-13,93,85,78,79,76,74,92,77,55,29.93,29.78,9,6,15,0.00
2013-8-14,82,76,66,78,73,63,95,88,78,30.00,29.79,12,4,18,0.00
2013-8-15,72,66,62,68,64,60,96,93,86,30.07,29.99,8,4,12,0.00
2013-8-16,73,69,64,69,67,63,96,94,88,30.07,30.01,7,4,11,0.00
2013-8-17,78,72,68,73,70,67,96,92,85,30.12,30.00,6,2,9,0.00
2013-8-18,88,78,70,77,72,69,96,86,63,30.17,30.08,6,1,8,0.00
2013-8-19,86,77,74,78,75,73,98,93,70,30.12,30.02,6,1,9,0.00
2013-8-20,86,78,74,77,75,73,98,92,73,30.14,30.04,6,1,7,0.00
2013-8-21,88,79,72,78,74,71,97,86,67,30.18,30.07,8,2,11,0.00
2013-8-22,87,78,73,76,74,72,96,89,65,30.12,29.99,6,1,8,0.00
2013-8-23,89,80,73,77,74,72,97,84,60,30.01,29.90,6,3,8,0.00
2013-8-24,83,75,70,72,69,65,96,82,57,30.20,29.97,8,3,9,0.00
2013-8-25,80,72,64,66,64,62,93,76,57,30.29,30.19,8,4,11,0.00
2013-8-26,82,73,64,66,64,61,92,74,53,30.24,30.09,6,2,7,0.00
2013-8-27,84,75,66,70,66,64,94,77,60,30.11,29.96,7,3,10,0.00
2013-8-28,90,79,70,74,70,66,92,75,54,29.99,29.89,7,4,13,0.00
2013-8-29,91,80,74,76,73,70,91,80,60,29.92,29.82,7,3,12,0.00
2013-8-30,85,77,70,74,72,68,95,85,65,29.99,29.91,8,3,12,0.00
2013-8-31,89,79,71,76,73,70,98,84,64,29.94,29.86,7,2,10,0.00
2013-9-1,90,82,76,78,76,74,96,83,58,29.92,29.80,8,5,14,0.00
2013-9-2,91,82,77,77,75,73,94,80,58,29.89,29.78,9,5,12,0.00
2013-9-3,90,78,72,76,73,67,93,84,62,29.91,29.78,16,3,21,0.00
2013-9-4,89,80,72,77,74,71,96,85,65,30.03,29.90,6,2,10,0.00
2013-9-5,89,81,74,77,74,69,97,81,53,30.05,29.97,6,1,8,0.00
2013-9-6,88,77,68,72,68,64,90,75,48,30.07,29.98,7,2,10,0.00
2013-9-7,84,75,66,69,66,62,93,75,49,30.06,29.94,6,2,8,0.00
2013-9-8,89,77,66,73,69,64,94,77,52,29.96,29.86,7,2,8,0.00
2013-9-9,87,78,69,73,70,68,95,79,58,30.10,29.94,7,2,11,0.00
2013-9-10,76,72,70,72,70,68,95,94,88,30.17,30.10,3,0,5,0.00
2013-9-19,80,75,67,63,60,57,88,62,47,30.08,30.04,5,2,7,0.00
2013-9-20,80,71,62,67,64,60,94,79,60,30.06,29.92,6,2,10,0.00
2013-9-21,83,75,68,72,69,66,93,82,61,29.92,29.69,11,3,13,0.00
2013-9-22,78,72,67,72,68,64,94,85,74,29.83,29.62,9,4,11,0.05
2013-9-23,77,68,60,64,60,57,93,77,52,30.02,29.83,7,2,10,0.01
2013-9-24,76,66,57,60,56,53,91,73,49,30.05,29.91,9,3,12,0.00
2013-9-25,74,66,58,65,60,55,94,83,71,29.92,29.80,6,2,8,0.00
2013-9-26,78,68,62,64,60,54,95,78,45,29.93,29.80,7,3,10,0.00
2013-9-27,78,67,58,62,58,56,94,75,51,30.09,29.93,10,4,16,0.00
2013-9-28,76,66,59,62,59,55,89,77,60,30.13,30.05,10,5,14,0.00
2013-9-29,76,65,57,59,56,54,95,76,49,30.09,29.97,8,3,12,0.00
2013-9-30,76,65,56,61,57,53,93,78,52,30.04,29.95,5,1,8,0.00
2013-10-1,80,67,55,61,58,54,95,75,48,30.10,30.00,6,1,10,0.00
2013-10-2,84,71,60,65,61,57,92,73,45,30.10,30.02,7,1,7,0.00
2013-10-3,83,72,61,70,65,60,95,80,51,30.12,30.05,6,2,11,0.00
2013-10-4,84,74,66,71,68,64,97,83,57,30.11,30.03,8,2,11,0.00
2013-10-5,85,74,64,71,67,62,98,83,48,30.09,30.01,8,2,10,0.00
2013-10-6,83,74,67,74,70,66,98,88,72,30.03,29.91,10,3,15,0.00
2013-10-7,78,75,72,74,72,70,96,91,84,29.91,29.78,8,3,11,0.00
2013-10-8,72,63,56,70,61,55,96,93,88,30.06,29.83,12,7,17,0.00
2013-10-9,71,62,57,62,58,55,94,85,72,30.04,29.99,10,6,17,0.00
2013-10-10,68,63,59,60,57,54,90,83,73,29.99,29.91,7,4,12,0.00
2013-10-11,77,68,63,65,62,60,91,82,64,29.95,29.86,7,2,9,0.00
2013-10-12,79,70,64,65,63,62,93,81,60,30.02,29.90,5,2,7,0.00
2013-10-13,73,68,62,66,64,61,95,89,79,30.09,30.01,7,3,9,0.00
2013-10-14,75,69,66,67,65,62,92,86,76,30.10,30.03,10,6,15,0.00
2013-10-15,72,65,61,64,61,58,91,86,75,30.09,29.98,6,4,9,0.01
2013-10-16,72,67,63,65,63,61,94,87,75,30.00,29.92,4,1,7,0.00
2013-10-17,78,67,60,66,63,59,96,86,67,29.95,29.85,7,2,10,0.00
2013-10-18,77,69,64,71,66,63,96,91,82,29.95,29.87,5,2,9,0.15
2013-10-19,78,72,64,72,68,63,98,87,76,29.92,29.82,5,2,7,0.01
2013-10-20,68,63,55,64,56,51,91,78,60,30.05,29.86,9,3,13,0.04
2013-10-21,70,60,53,58,54,50,93,81,62,30.10,29.98,5,2,7,0.00
2013-10-22,68,63,59,61,58,55,93,85,73,29.98,29.81,5,0,8,0.04
2013-10-23,72,63,54,60,52,39,96,71,35,29.97,29.69,11,4,21,0.07
2013-10-24,62,52,42,47,39,34,86,63,40,30.16,29.97,6,2,10,0.00
2013-10-25,59,50,41,46,39,32,92,68,37,30.32,30.10,9,3,14,0.00
2013-10-26,63,49,35,45,38,32,89,69,43,30.31,30.10,7,2,9,0.00
2013-10-27,69,56,44,52,46,41,91,71,46,30.11,30.03,4,1,6,0.00
2013-10-28,73,61,51,59,55,49,94,83,58,30.23,30.09,5,1,6,0.00
2013-10-29,74,62,52,61,56,51,96,83,53,30.29,30.20,4,1,5,0.00
2013-10-30,76,63,53,62,57,52,96,83,54,30.28,30.15,6,1,8,0.00
2013-10-31,77,66,55,68,62,54,97,87,66,30.18,29.95,11,2,15,0.00
2013-11-1,79,74,70,69,68,66,94,82,67,29.95,29.71,11,7,17,0.07
2013-11-2,71,65,54,68,60,50,96,83,57,29.90,29.68,7,2,8,0.61
2013-11-3,64,55,48,50,44,40,88,69,42,30.28,29.90,7,2,9,0.00
2013-11-4,62,51,43,43,40,37,88,69,46,30.44,30.28,10,4,13,0.00
2013-11-5,58,47,41,54,43,37,90,86,79,30.42,30.31,7,4,11,0.00
2013-11-6,76,65,55,65,59,52,96,82,67,30.31,30.06,6,3,10,0.07
2013-11-7,74,66,57,65,62,42,97,88,59,30.06,29.88,9,2,12,0.27
2013-11-8,59,51,42,42,36,30,87,59,36,30.27,30.02,10,4,13,0.00
2013-11-9,64,51,36,51,42,33,88,73,50,30.33,30.18,4,1,6,0.00
2013-11-10,68,57,49,51,48,42,93,73,40,30.21,30.08,5,1,6,0.00
2013-11-11,63,52,45,46,40,34,92,66,41,30.28,30.13,7,2,11,0.00
2013-11-12,66,49,36,47,42,29,93,79,45,30.34,30.01,15,2,15,0.00
2013-11-13,47,36,30,31,26,21,88,68,38,30.47,30.32,11,4,17,0.01
2013-11-14,59,39,27,39,30,23,90,73,30,30.48,30.31,3,0,5,0.00
2013-11-15,65,54,38,59,48,35,94,83,65,30.31,30.14,7,2,11,0.00
2013-11-16,76,64,58,64,60,57,97,87,58,30.18,30.11,6,1,7,0.00
2013-11-17,75,64,54,68,62,53,97,93,77,30.17,29.95,7,2,9,0.01
2013-11-18,81,73,62,71,66,44,96,81,52,29.96,29.75,9,5,11,0.04
2013-11-19,62,54,44,45,35,31,71,50,35,30.21,29.88,11,4,12,0.00
2013-11-20,58,49,42,45,40,34,81,71,59,30.33,30.20,9,5,13,0.00
2013-11-21,69,56,48,60,51,43,94,84,71,30.37,30.29,8,3,11,0.00
2013-11-22,73,63,58,65,60,57,96,91,71,30.31,30.10,6,2,9,0.04
2013-11-23,65,61,54,63,58,41,96,91,61,30.09,29.98,8,2,11,0.13
2013-11-24,54,40,30,40,19,9,61,43,26,30.50,30.08,12,6,15,0.00
2013-11-25,47,36,26,32,16,9,74,46,27,30.56,30.26,7,3,11,0.00
2013-11-26,71,57,39,69,55,32,97,92,75,30.26,29.58,17,6,22,2.82
2013-11-27,69,54,35,67,50,26,95,88,68,30.16,29.43,12,6,18,0.11
2013-11-28,46,36,30,32,25,19,90,65,42,30.46,30.16,10,2,11,0.00
2013-11-29,55,41,31,35,31,28,88,71,41,30.52,30.43,6,2,8,0.00
2013-11-30,55,44,33,42,36,28,83,72,59,30.52,30.28,7,4,11,0.00
2013-12-1,58,51,44,51,46,40,91,83,75,30.28,29.97,4,2,7,0.00
2013-12-2,61,53,46,51,48,44,93,85,62,29.97,29.78,6,1,9,0.00
2013-12-3,63,53,43,55,48,41,95,86,63,29.98,29.84,6,1,7,0.03
2013-12-4,72,62,56,64,59,54,97,91,74,30.08,29.95,6,1,10,0.34
2013-12-5,78,66,57,66,62,56,97,86,63,30.14,30.04,8,4,10,0.01
2013-12-6,80,72,66,69,66,64,94,83,62,30.12,30.02,13,8,18,0.00
2013-12-7,72,59,44,67,56,42,94,91,82,30.34,30.04,12,6,16,0.07
2013-12-8,44,42,40,42,40,39,95,94,92,30.35,30.23,8,5,12,0.04
2013-12-9,66,51,40,62,50,39,97,95,88,30.23,30.02,5,1,6,0.00
2013-12-10,73,59,43,68,56,40,98,90,74,30.29,29.88,12,5,21,0.15
2013-12-11,54,43,33,40,32,23,91,69,32,30.44,30.26,7,1,10,0.00
2013-12-12,51,41,32,37,29,21,92,66,31,30.36,30.23,11,2,16,0.00
2013-12-13,54,40,29,36,29,20,92,69,28,30.39,30.25,6,1,9,0.00
2013-12-14,70,58,42,66,52,35,95,82,69,30.25,29.74,16,5,19,0.65
2013-12-15,67,56,44,64,51,40,94,85,72,30.08,29.70,10,4,15,0.12
2013-12-16,59,46,35,44,38,33,92,76,46,30.18,30.07,6,2,8,0.00
2013-12-17,66,52,42,41,38,36,87,63,35,30.16,30.00,10,5,16,0.00
2013-12-18,55,47,36,38,32,25,87,59,33,30.29,30.01,8,2,10,0.00
2013-12-19,64,47,32,46,36,30,93,72,32,30.34,30.23,5,1,7,0.00
2013-12-20,73,58,46,60,52,44,95,83,59,30.23,30.12,9,2,13,0.00
2013-12-21,76,64,53,67,61,52,97,89,74,30.15,30.05,10,3,11,0.00
2013-12-22,81,72,65,70,67,62,96,83,65,30.10,30.03,15,7,20,0.00
2013-12-23,78,70,60,71,67,59,96,90,72,30.08,29.98,12,6,15,0.32
2013-12-24,60,48,38,59,43,31,95,82,59,30.36,30.03,8,4,14,0.08
2013-12-25,46,38,30,31,26,20,75,63,51,30.47,30.31,8,4,11,0.00
2013-12-26,45,40,35,41,36,28,92,84,75,30.31,30.20,6,2,6,0.01
2013-12-27,53,44,36,39,34,31,91,71,45,30.39,30.28,7,3,11,0.00
2013-12-28,62,47,33,49,37,30,90,71,40,30.37,30.05,6,2,7,0.01
2013-12-29,72,64,52,67,60,49,97,88,67,30.05,29.72,15,6,20,1.04
2013-12-30,58,51,46,50,48,44,96,88,67,30.12,29.91,4,1,6,0.00
2013-12-31,55,49,42,48,43,37,92,80,51,30.34,30.08,6,2,8,0.00
2014-1-1,50,44,39,43,39,36,94,85,61,30.36,30.12,4,1,6,0.04
2014-1-2,54,51,45,53,49,44,96,95,88,30.11,29.58,11,3,14,0.72